DateTimeUTC,F1_A11,F1_S11,BsB_S11,BsG_S11,BsR_S11,BbsB_S11,BbsG_S11,BbsR_S11,BaB_A11,BaG_A11,BaR_A11,Tu_S11,T_S11,Uu_S11,U_S11,P_S11,T1_A11
2021-05-27T01:00:00Z,00000200,20000000,,,,,,,-000.01,0000.33,-000.15,18.2,24.9,10.3,06.8,0678.9,31.0
2021-05-27T01:01:00Z,00000200,20000000,,,,,,,0000.34,-000.25,0000.14,18.2,24.9,10.2,06.8,0678.9,31.0
2021-05-27T01:02:00Z,00000200,20000000,,,,,,,-000.50,-000.19,-000.01,18.2,24.9,10.2,06.8,0678.9,31.0
2021-05-27T01:03:00Z,00000200,60000000,,,,,,,0000.56,0000.07,-000.03,18.2,24.9,10.2,06.8,0678.9,31.0
2021-05-27T01:04:00Z,00000200,40000000,0000.61,0000.54,0000.18,0000.02,-000.05,-000.07,-000.41,-000.06,0000.06,18.3,24.7,10.4,07.0,0679.8,31.0
2021-05-27T01:05:00Z,00000200,00000000,-000.23,0000.17,0000.38,-000.17,0000.02,-000.16,0000.41,0000.01,-000.22,18.3,24.7,10.4,07.1,0679.9,31.0
2021-05-27T01:06:00Z,00000200,00000000,0000.51,0000.56,0000.17,-000.58,0000.07,0000.12,-000.35,0000.02,-000.20,18.3,24.7,10.3,07.0,0679.9,31.0
2021-05-27T01:07:00Z,00000200,00000000,0000.09,0000.40,0000.08,-000.20,0000.09,-000.07,0000.18,0000.11,0000.08,18.3,24.6,10.3,07.0,0679.9,31.0
2021-05-27T01:08:00Z,00000200,00000000,0000.83,0000.44,0000.30,0000.05,0000.06,-000.08,0000.07,-000.36,-000.17,18.3,24.6,10.4,07.0,0679.9,31.0
2021-05-27T01:09:00Z,00000200,00000000,0000.47,0000.43,0000.25,-000.12,0000.24,-000.19,-000.21,0000.66,0000.12,18.3,24.6,10.3,07.0,0679.9,31.0
2021-05-27T01:10:00Z,00000200,00000000,0000.34,0000.84,0000.31,0000.46,0000.25,0000.04,-000.00,-000.17,0000.52,18.3,24.6,10.3,07.0,0679.9,31.0
2021-05-27T01:11:00Z,00000200,00000000,0000.52,0000.63,0000.15,0000.09,0000.06,0000.15,-000.36,-000.48,-000.78,18.3,24.6,10.3,07.0,0679.9,31.0
2021-05-27T01:12:00Z,00000200,00000000,0000.62,0000.60,-000.00,0000.50,0000.15,-000.12,0000.42,0000.42,0000.65,18.3,24.6,10.2,06.9,0679.9,31.0
2021-05-27T01:13:00Z,00000200,00000000,0001.67,0000.50,0000.24,0000.25,0000.22,0000.27,-000.22,-000.58,-000.18,18.3,24.6,10.2,06.9,0679.9,31.0
2021-05-27T01:14:00Z,00000200,00000000,0000.25,0000.37,0000.37,0000.20,0000.07,0000.28,-000.12,0000.40,-000.18,18.3,24.6,10.2,06.9,0679.9,31.0
2021-05-27T01:15:00Z,00000200,00000000,0000.86,0000.44,0000.23,0000.07,0000.25,0000.02,0000.30,0000.02,0000.13,18.3,24.6,10.1,06.9,0679.9,31.0
2021-05-27T01:16:00Z,00000200,00000000,0000.12,0000.65,0000.36,-000.05,0000.04,0000.32,0000.68,0000.51,0000.16,18.3,24.6,10.3,07.0,0679.9,31.0
2021-05-27T01:17:00Z,00000200,00000000,0000.59,0000.39,0000.19,0000.19,0000.18,0000.03,-000.49,-000.20,0000.24,18.3,24.6,10.3,07.0,0679.9,31.0
2021-05-27T01:18:00Z,00000200,00000000,0000.41,0000.60,0000.25,0000.40,0000.22,-000.06,0000.01,-000.40,-000.28,18.3,24.6,10.2,07.0,0679.9,31.0
2021-05-27T01:19:00Z,00000200,00000000,0000.34,0000.20,0000.34,-000.07,0000.12,0000.08,-000.13,0000.21,-000.22,18.3,24.6,10.1,06.9,0679.8,31.0
2021-05-27T01:20:00Z,00000200,00000000,0000.02,0000.33,-000.07,0000.48,0000.22,-000.15,0000.10,0000.59,0000.55,18.3,24.5,10.2,06.9,0679.8,30.9
2021-05-27T01:21:00Z,00000200,00000000,0000.51,0000.33,0000.22,0000.25,0000.17,0000.15,0000.36,-000.57,-000.09,18.3,24.6,10.3,07.0,0679.8,30.9
2021-05-27T01:22:00Z,00000200,00000000,0000.52,0000.61,0000.18,-000.01,-000.25,0000.01,0000.09,0000.57,0000.15,18.3,24.5,10.4,07.1,0679.8,31.0
2021-05-27T01:23:00Z,00000200,00000000,-000.15,0000.48,0000.33,0000.01,0000.07,0000.26,-000.02,0000.08,-000.04,18.3,24.5,10.5,07.2,0679.8,31.0
2021-05-27T01:24:00Z,00000200,00000000,0000.74,0000.84,0000.12,0000.35,0000.23,-000.09,0000.26,0000.15,0000.60,18.3,24.5,10.5,07.1,0679.8,31.0
2021-05-27T01:25:00Z,00000200,00000000,0000.33,0000.50,0000.20,0000.45,-000.16,0000.17,0000.11,0000.19,-000.06,18.3,24.5,10.4,07.1,0679.8,30.9
2021-05-27T01:26:00Z,00000200,00000000,-000.14,0000.57,0000.18,-000.11,0000.13,-000.04,-000.11,-000.32,-000.47,18.3,24.5,10.4,07.1,0679.8,31.0
2021-05-27T01:27:00Z,00000200,00000000,0000.27,0000.41,0000.21,-000.31,0000.04,0000.10,-000.13,-000.05,0000.22,18.2,24.5,10.4,07.1,0679.8,30.9
2021-05-27T01:28:00Z,00000200,00000000,0000.74,0000.58,0000.32,-000.02,0000.03,0000.20,-000.02,0000.26,0000.21,18.2,24.5,10.4,07.1,0679.8,31.0
2021-05-27T01:29:00Z,00000200,00000000,0000.30,0000.06,0000.41,0000.15,0000.08,0000.15,0000.83,0000.55,0000.30,18.2,24.5,10.6,07.2,0679.9,31.0
2021-05-27T01:30:00Z,00000200,00000000,-000.21,0000.50,0000.13,0000.09,0000.08,0000.05,0000.25,0000.09,0000.37,18.2,24.5,10.6,07.2,0679.9,31.0
2021-05-27T01:31:00Z,00000200,00000000,0000.75,0000.60,0000.08,-000.17,0000.11,0000.18,0000.01,0000.12,0000.25,18.2,24.5,10.7,07.3,0679.9,31.0
2021-05-27T01:32:00Z,00000200,00000000,-000.23,0000.42,0000.44,-000.21,0000.00,-000.09,0000.02,0000.05,0000.43,18.2,24.5,10.8,07.4,0679.9,31.0
2021-05-27T01:33:00Z,00000200,00000000,0000.16,0000.30,0000.34,-000.09,-000.05,0000.04,0000.29,0000.25,-000.11,18.2,24.5,10.9,07.4,0679.9,31.0
2021-05-27T01:34:00Z,00000200,00000000,0000.76,0000.38,0000.19,0000.00,0000.30,0000.13,0000.09,-000.14,0000.14,18.2,24.5,11.0,07.5,0679.9,30.9
2021-05-27T01:35:00Z,00000200,00000000,0001.01,0000.44,-000.01,0000.26,0000.14,-000.38,0000.19,0000.39,0000.21,18.2,24.5,11.1,07.5,0679.9,31.0
2021-05-27T01:36:00Z,00000200,00000000,0000.58,0000.07,-000.05,0000.18,0000.17,-000.10,0000.14,0000.15,0000.15,18.2,24.5,11.2,07.6,0679.9,31.0
2021-05-27T01:37:00Z,00000200,00000000,0000.32,0000.40,0000.29,-000.01,0000.28,0000.16,0000.08,0000.22,-000.04,18.2,24.5,11.3,07.7,0679.9,30.9
2021-05-27T01:38:00Z,00000200,00000000,-000.07,0000.16,0000.64,-000.25,0000.30,0000.15,-000.33,-000.11,-000.22,18.2,24.5,11.2,07.6,0679.8,30.9
2021-05-27T01:39:00Z,00000200,00000000,0000.02,0000.72,0000.37,0000.44,0000.11,-000.09,0000.48,0000.29,0000.28,18.2,24.5,11.2,07.6,0679.8,30.9
2021-05-27T01:40:00Z,00000200,00000000,0000.10,0000.41,0000.15,-000.30,0000.28,0000.14,-000.01,0000.09,-000.25,18.2,24.4,11.3,07.7,0679.8,31.0
2021-05-27T01:41:00Z,00000200,00000000,-000.10,0000.43,0000.12,-000.03,-000.05,0000.31,0000.07,0000.18,0000.59,18.2,24.5,11.2,07.6,0679.8,30.9
2021-05-27T01:42:00Z,00000200,00000000,0000.96,0000.58,0000.37,0000.32,0000.17,0000.04,0000.38,0000.14,-000.02,18.2,24.4,11.5,07.8,0679.8,31.0
2021-05-27T01:43:00Z,00000200,00000000,0000.62,0000.32,0000.18,-000.48,0000.27,0000.31,0000.06,-000.01,0000.36,18.2,24.4,11.5,07.8,0679.8,31.0
2021-05-27T01:44:00Z,00000200,00000000,0000.17,0000.52,0000.05,0000.01,0000.15,0000.28,-000.11,-000.46,-000.02,18.2,24.4,11.4,07.8,0679.9,31.0
2021-05-27T01:45:00Z,00000200,00000000,0000.30,0000.27,0000.02,0000.73,-000.05,0000.19,-000.41,-000.00,-000.59,18.2,24.4,11.2,07.7,0679.8,30.9
2021-05-27T01:46:00Z,00000200,00000000,0000.56,0000.35,0000.19,-000.14,0000.18,-000.03,0000.79,0000.77,0000.58,18.2,24.4,11.3,07.7,0679.8,31.0
2021-05-27T01:47:00Z,00000200,00000000,0000.79,0000.27,0000.19,0000.24,0000.10,-000.16,-000.11,-000.30,0000.30,18.2,24.4,11.4,07.8,0679.8,30.9
2021-05-27T01:48:00Z,00000200,00000000,0000.26,0000.55,0000.22,0000.01,-000.04,-000.07,0000.38,0000.66,0000.50,18.2,24.4,11.6,07.9,0679.8,30.9
2021-05-27T01:49:00Z,00000200,00000000,-000.14,0000.43,0000.52,0000.10,0000.30,0000.31,-000.50,-000.40,-000.36,18.2,24.4,11.6,07.9,0679.9,30.9
2021-05-27T01:50:00Z,00000200,00000000,0000.68,0000.44,0000.00,0000.05,-000.08,-000.04,0000.30,0000.22,-000.12,18.1,24.4,11.4,07.7,0679.9,30.9
2021-05-27T01:51:00Z,00000200,00000000,0000.37,0000.63,0000.14,0000.30,-000.03,0000.22,0000.05,-000.07,0000.28,18.2,24.4,11.5,07.8,0679.9,30.9
2021-05-27T01:52:00Z,00000200,00000000,0000.49,0000.28,0000.07,0000.19,0000.09,-000.02,0000.12,-000.29,-000.13,18.2,24.4,11.5,07.8,0679.9,30.9
2021-05-27T01:53:00Z,00000200,00000000,0000.36,0000.37,-000.01,0000.40,-000.05,-000.31,0000.16,0000.78,0000.23,18.1,24.4,11.5,07.8,0679.9,30.9
2021-05-27T01:54:00Z,00000200,00000000,0000.05,0000.45,0000.25,-000.28,0000.35,-000.06,0000.21,-000.04,-000.13,18.1,24.4,11.6,07.9,0679.9,30.9
2021-05-27T01:55:00Z,00000200,00000000,0000.42,0000.55,0000.29,-000.01,0000.10,-000.03,-000.05,0000.13,0000.59,18.1,24.4,11.7,08.0,0679.9,30.9
2021-05-27T01:56:00Z,00000200,00000000,0000.04,0000.69,0000.28,0000.06,0000.08,0000.14,-000.16,-000.40,-000.53,18.1,24.4,11.6,07.9,0679.9,30.9
2021-05-27T01:57:00Z,00000200,40000000,,,,,,,0000.13,0000.05,0000.20,18.2,24.4,11.8,08.1,0680.0,30.9
2021-05-27T01:58:00Z,00000200,60000000,,,,,,,0000.41,0000.36,0000.38,17.9,24.5,11.7,07.7,0678.9,30.9
2021-05-27T01:59:00Z,00000200,20000000,,,,,,,-000.50,-000.24,-000.40,17.9,24.6,11.8,07.8,0678.9,30.9
